Location: Limerick
(52.6650°N, 8.6230°W)
Time: 21:44:46
(UTC+00:00)

ISS - Pass Details

Date: 21 March 2017
Orbit: 399 x 409 km, 51.6° (Epoch: 26 March)

Event Time Altitude Azimuth Distance (km) Brightness Sun altitude
Exits shadow 03:36:40 10° 113° (ESE) 1,460 -0.7 -25.7°
Drops below altitude 10° 03:36:42 10° 113° (ESE) 1,474 -0.7 -25.7°
Sets 03:38:48 0° 110° (ESE) 2,335 0.4 -25.5°
